Terminal Aerodrome Forecast
Issued by NWS

Home | Current Version | Previous Version | Text Only | Print | Product List | Glossary On
Versions: 1 2 3 4 5 6 7 8 9 10 11 12 13 14 15 16 17 18 19
155
FTUS46 KSEW 230154 AAA
TAFHQM
TAF AMD
KHQM 230154Z 2302/2324 24011KT 6SM BR BKN006
      TEMPO 2302/2305 3SM BR OVC006
     FM230600 25006KT 5SM BR OVC006
     FM230900 25004KT 4SM BR OVC003
      TEMPO 2311/2315 1/2SM FG VV001
     FM232000 23010KT P6SM SCT007 OVC020=

USA.gov is the U.S. government's official web portal to all federal, state and local government web resources and services.